Meteo pe oră la Almalo

Astăzi, 26 Ianuarie, Marţi

Timp Temperatura Precipitaţii Vânt Presiune Umiditate
00:00 +3°C° 0 mm 4 m/s 762 mmHg 70%
01:00 +3°C° 0 mm 4 m/s 762 mmHg 72%
02:00 +3°C° 0 mm 4 m/s 761 mmHg 74%
03:00 +3°C° 0 mm 4 m/s 761 mmHg 75%
04:00 +3°C° 0 mm 3 m/s 761 mmHg 77%
05:00 +4°C° 0 mm 2 m/s 761 mmHg 78%
06:00 +3°C° 0 mm 2 m/s 761 mmHg 79%
07:00 +5°C° 0 mm 1 m/s 762 mmHg 76%
08:00 +5°C° 0 mm 1 m/s 762 mmHg 72%
09:00 +6°C° 0 mm 1 m/s 762 mmHg 68%
10:00 +7°C° 0 mm 1 m/s 762 mmHg 66%
11:00 +8°C° 0 mm 1 m/s 762 mmHg 63%
12:00 +9°C° 0 mm 1 m/s 763 mmHg 61%
13:00 +9°C° 0 mm 1 m/s 763 mmHg 61%
14:00 +9°C° 0 mm 1 m/s 763 mmHg 62%
15:00 +9°C° 0 mm 1 m/s 763 mmHg 62%
16:00 +8°C° 0 mm 1 m/s 763 mmHg 66%
17:00 +7°C° 0 mm 1 m/s 764 mmHg 70%
18:00 +6°C° 0 mm 1 m/s 764 mmHg 74%
19:00 +5°C° 0 mm 2 m/s 764 mmHg 77%
20:00 +5°C° 0 mm 2 m/s 764 mmHg 80%
21:00 +4°C° 0 mm 3 m/s 764 mmHg 83%
22:00 +4°C° 0 mm 3 m/s 764 mmHg 83%
23:00 +4°C° 0 mm 3 m/s 764 mmHg 83%

Mâine, 27 Ianuarie, Miercuri

Timp Temperatura Precipitaţii Vânt Presiune Umiditate
00:00 +4°C° 0 mm 3 m/s 764 mmHg 82%
01:00 +3°C° 0 mm 3 m/s 763 mmHg 82%
02:00 +3°C° 0 mm 3 m/s 763 mmHg 83%
03:00 +4°C° 0 mm 2 m/s 763 mmHg 83%
04:00 +4°C° 0 mm 2 m/s 763 mmHg 82%
05:00 +4°C° 0 mm 2 m/s 762 mmHg 82%
06:00 +4°C° 0 mm 2 m/s 762 mmHg 81%
07:00 +4°C° 0 mm 3 m/s 762 mmHg 77%
08:00 +5°C° 0 mm 4 m/s 762 mmHg 73%
09:00 +5°C° 0 mm 5 m/s 761 mmHg 68%
10:00 +5°C° 0 mm 6 m/s 761 mmHg 64%
11:00 +8°C° 0 mm 7 m/s 760 mmHg 60%
12:00 +9°C° 0 mm 8 m/s 760 mmHg 56%
13:00 +7°C° 0 mm 8 m/s 759 mmHg 61%
14:00 +8°C° 0 mm 7 m/s 758 mmHg 66%
15:00 +8°C° 0 mm 7 m/s 758 mmHg 71%
16:00 +6°C° 0 mm 7 m/s 758 mmHg 73%
17:00 +5°C° 0 mm 7 m/s 757 mmHg 75%
18:00 +5°C° 0 mm 6 m/s 757 mmHg 76%
19:00 +5°C° 0 mm 6 m/s 757 mmHg 78%
20:00 +5°C° 0 mm 6 m/s 756 mmHg 80%
21:00 +5°C° 0 mm 6 m/s 756 mmHg 81%
22:00 +5°C° 0 mm 5 m/s 756 mmHg 81%
23:00 +5°C° 0 mm 4 m/s 755 mmHg 80%

Poimâine, 28 Ianuarie, Joi

Timp Temperatura Precipitaţii Vânt Presiune Umiditate
00:00 +5°C° 0 mm 3 m/s 755 mmHg 80%
01:00 +5°C° 0 mm 3 m/s 754 mmHg 78%
02:00 +5°C° 0 mm 2 m/s 754 mmHg 76%
03:00 +5°C° 0 mm 2 m/s 753 mmHg 75%
04:00 +5°C° 0 mm 2 m/s 753 mmHg 74%
05:00 +5°C° 0 mm 2 m/s 753 mmHg 73%
06:00 +5°C° 0 mm 2 m/s 753 mmHg 72%
07:00 +5°C° 0 mm 2 m/s 753 mmHg 69%
08:00 +6°C° 0 mm 2 m/s 753 mmHg 67%
09:00 +7°C° 0 mm 2 m/s 753 mmHg 64%
10:00 +8°C° 0 mm 2 m/s 753 mmHg 60%
11:00 +9°C° 0 mm 2 m/s 752 mmHg 56%
12:00 +10°C° 0 mm 2 m/s 752 mmHg 52%
13:00 +12°C° 0 mm 2 m/s 752 mmHg 51%
14:00 +12°C° 0 mm 2 m/s 751 mmHg 50%
15:00 +13°C° 0 mm 1 m/s 751 mmHg 49%
16:00 +12°C° 0 mm 2 m/s 751 mmHg 53%
17:00 +10°C° 0 mm 2 m/s 751 mmHg 57%
18:00 +9°C° 0 mm 2 m/s 751 mmHg 61%
19:00 +8°C° 0 mm 3 m/s 751 mmHg 63%
20:00 +8°C° 0 mm 3 m/s 751 mmHg 66%
21:00 +7°C° 0 mm 4 m/s 750 mmHg 68%
22:00 +6°C° 0 mm 4 m/s 751 mmHg 71%
23:00 +6°C° 0 mm 5 m/s 751 mmHg 73%

29 Ianuarie, Vineri

Timp Temperatura Precipitaţii Vânt Presiune Umiditate
00:00 +6°C° 0 mm 5 m/s 751 mmHg 75%
01:00 +5°C° 0 mm 6 m/s 751 mmHg 74%
02:00 +5°C° 0 mm 6 m/s 752 mmHg 73%
03:00 +5°C° 0 mm 7 m/s 752 mmHg 72%
04:00 +4°C° 0 mm 6 m/s 753 mmHg 74%
05:00 +4°C° 0 mm 6 m/s 753 mmHg 76%
06:00 +4°C° 0 mm 6 m/s 754 mmHg 79%
07:00 +5°C° 0 mm 5 m/s 754 mmHg 77%
08:00 +6°C° 0 mm 4 m/s 755 mmHg 76%
09:00 +7°C° 0 mm 3 m/s 755 mmHg 74%
10:00 +8°C° 0 mm 2 m/s 755 mmHg 69%
11:00 +10°C° 0 mm 2 m/s 754 mmHg 63%
12:00 +12°C° 0 mm 1 m/s 754 mmHg 58%
13:00 +12°C° 0 mm 2 m/s 754 mmHg 57%
14:00 +12°C° 0 mm 2 m/s 754 mmHg 57%
15:00 +11°C° 0 mm 3 m/s 754 mmHg 56%
16:00 +10°C° 0 mm 3 m/s 755 mmHg 62%
17:00 +9°C° 0 mm 2 m/s 755 mmHg 68%
18:00 +8°C° 0 mm 2 m/s 756 mmHg 73%
19:00 +8°C° 0 mm 2 m/s 756 mmHg 76%
20:00 +7°C° 0 mm 2 m/s 756 mmHg 78%
21:00 +7°C° 0 mm 2 m/s 757 mmHg 81%
22:00 +7°C° 0 mm 2 m/s 757 mmHg 82%
23:00 +7°C° 0 mm 1 m/s 756 mmHg 83%

30 Ianuarie, Sâmbătă

Timp Temperatura Precipitaţii Vânt Presiune Umiditate
00:00 +7°C° 0 mm 1 m/s 756 mmHg 84%
01:00 +7°C° 0 mm 1 m/s 757 mmHg 84%
02:00 +7°C° 0 mm 1 m/s 757 mmHg 85%
03:00 +7°C° 0 mm 1 m/s 757 mmHg 85%
04:00 +6°C° 0.4 mm 2 m/s 757 mmHg 88%
05:00 +6°C° 0.4 mm 2 m/s 757 mmHg 90%
06:00 +5°C° 0.4 mm 3 m/s 757 mmHg 93%
07:00 +4°C° 0.9 mm 3 m/s 758 mmHg 93%
08:00 +4°C° 0.9 mm 3 m/s 758 mmHg 93%
09:00 +4°C° 0.9 mm 3 m/s 759 mmHg 93%
10:00 +4°C° 0.2 mm 3 m/s 758 mmHg 90%
11:00 +5°C° 0.2 mm 2 m/s 758 mmHg 88%
12:00 +6°C° 0.2 mm 1 m/s 758 mmHg 85%
13:00 +7°C° 0 mm 1 m/s 758 mmHg 80%
14:00 +7°C° 0 mm 1 m/s 758 mmHg 76%
15:00 +8°C° 0 mm 1 m/s 758 mmHg 71%
16:00 +7°C° 0 mm 1 m/s 758 mmHg 73%
17:00 +6°C° 0 mm 2 m/s 758 mmHg 75%
18:00 +4°C° 0 mm 3 m/s 758 mmHg 77%
19:00 +4°C° 0 mm 3 m/s 758 mmHg 79%
20:00 +4°C° 0 mm 3 m/s 758 mmHg 80%
21:00 +4°C° 0 mm 4 m/s 758 mmHg 81%
22:00 +3°C° 0 mm 4 m/s 758 mmHg 82%
23:00 +3°C° 0 mm 4 m/s 758 mmHg 83%

31 Ianuarie, Duminică

Timp Temperatura Precipitaţii Vânt Presiune Umiditate
00:00 +3°C° 0 mm 4 m/s 757 mmHg 85%
01:00 +2°C° 0 mm 5 m/s 757 mmHg 84%
02:00 +2°C° 0 mm 5 m/s 757 mmHg 83%
03:00 +2°C° 0 mm 5 m/s 756 mmHg 82%
04:00 +2°C° 0 mm 6 m/s 756 mmHg 82%
05:00 +2°C° 0 mm 6 m/s 755 mmHg 81%
06:00 +2°C° 0 mm 6 m/s 755 mmHg 80%
07:00 +3°C° 0 mm 7 m/s 755 mmHg 77%
08:00 +3°C° 0 mm 7 m/s 754 mmHg 74%
09:00 +4°C° 0 mm 7 m/s 754 mmHg 71%
10:00 +4°C° 0 mm 7 m/s 754 mmHg 69%
11:00 +5°C° 0 mm 6 m/s 754 mmHg 67%
12:00 +7°C° 0 mm 5 m/s 754 mmHg 65%
13:00 +7°C° 0 mm 5 m/s 754 mmHg 64%
14:00 +8°C° 0 mm 4 m/s 754 mmHg 63%
15:00 +9°C° 0 mm 3 m/s 754 mmHg 63%
16:00 +8°C° 0 mm 2 m/s 755 mmHg 65%
17:00 +8°C° 0 mm 2 m/s 756 mmHg 68%
18:00 +7°C° 0 mm 2 m/s 758 mmHg 70%
19:00 +7°C° 0 mm 2 m/s 758 mmHg 70%
20:00 +6°C° 0 mm 2 m/s 759 mmHg 70%
21:00 +6°C° 0 mm 2 m/s 759 mmHg 70%
22:00 +6°C° 0 mm 2 m/s 759 mmHg 71%
23:00 +6°C° 0 mm 1 m/s 760 mmHg 71%
Arată mai mult

Formular de consimțământ

Meteoprog și furnizorii noștri de servicii pot stoca și accesa date personale, precum cookies, identificatori de dispozitiv sau alte tehnologii similare pe dispozitivul dumneavoastră și procesa astfel de date pentru a personaliza conținutul și reclamele, dar și pentru a oferi caracteristici de social media și pentru a analiza traficul.

  • Stocarea și/sau accesarea informațiilor pe dispozitivul dumneavoastră

    Cookies, identificatori de dispozitiv sau alte informații pot fi stocate sau accesate pe dispozitiv în scopurile indicate mai sus.

  • Reclame și conținut personalizat, evaluarea reclamelor și a conținutului, informații despre audiențe și dezvoltarea produselor

    Reclamele și conținutul pot fi personalizate pe baza unui profil. Pot fi adăugate date suplimentare pentru a personaliza mai bine reclamele și conținutul. Performanța reclamelor și conținutului poate fi măsurată. Pot fi obținute informații despre utilizatorii care au văzut reclamele și conținutul. Aceste date pot fi utilizate pentru a dezvolta sau îmbunătăți experiența utilizatorilor, sistemele și software-ul.

Dând clic pe ‘Sunt de acord’, permiteți utilizarea cookie-urilor menționate, a identificatorilor de dispozitiv, balizelor web sau altor tehnologii similare. Setările pot fi modificate din browser-ul dispozitivului dumneavoastră.

În anumite scopuri, interesele legitime pot prima asupra consimțământului. Puteți citi mai multe informații în acest sens în Politica privind Confidențialitatea Datelor și Cookie.